Cairns, Queensland

2:59 PM AEST on August 30, 2016 (GMT +1000)
Cairns International

Weather History for YBCS - December, 2012

Change the Weather History Date:

Saturday, December 29, 2012

  Actual Average Record
Temperature  
Mean Temperature 83 °F -  
Max Temperature 92 °F 89 °F 92 °F (2012)
Min Temperature 74 °F 74 °F 71 °F (1996)
Cooling Degree Days 18    
Growing Degree Days 33 (Base 50)    
Moisture  
Dew Point 70 °F    
Average Humidity 64    
Maximum Humidity 83    
Minimum Humidity 36    
Precipitation  
Precipitation 0.00 in 0.51 in - ()
Sea Level Pressure  
Sea Level Pressure 29.78 in    
Wind  
Wind Speed 9 mph ()    
Max Wind Speed 18 mph    
Max Gust Speed -    
Visibility 7.2 miles    
Events      
Averages and records for this station are not official NWS values.
T = Trace of Precipitation, MM = Missing Value Source: Averaged Metar Reports

Daily Weather History Graph

Daily Weather History Graph

Search for Another Location

Airport or City:

Trip Planner

Search our weather history database for the weather conditions in past years. The results will help you decide how hot, cold, wet, or windy it might be!

Date:

Astronomy

Dec. 29, 2012 Rise Set
Actual Time 5:45 AM AEST 6:52 PM AEST
Civil Twilight 5:21 AM AEST 7:16 PM AEST
Nautical Twilight 4:52 AM AEST 7:45 PM AEST
Astronomical Twilight 4:23 AM AEST 8:14 PM AEST
Moon 7:25 PM AEST (12/29) 6:12 AM AEST (12/29)
Length of Visible Light 13h 55m
Length of Day
13h 07m
Full, 100% of the Moon is Illuminated
Dec 29
Full
Jan 5
Last Quarter
Jan 12
New
Jan 19
First Quarter
Jan 27
Full

Hourly Weather History & Observations

Time (AEST) Temp. Heat Index Dew Point Humidity Pressure Visibility Wind Dir Wind Speed Gust Speed Precip Events Conditions
12:00 AM 78 °F - 71 °F 74% 29.81 in - SSE 8.1 mph - -  
12:00 AM 78.8 °F - 71.6 °F 78% 29.80 in 6.2 mi SSE 8.1 mph - N/A   Scattered Clouds
12:30 AM 78.8 °F - 71.6 °F 78% 29.80 in 6.2 mi SSE 8.1 mph - N/A   Scattered Clouds
1:00 AM 78 °F - 70 °F 71% 29.81 in - South 6.9 mph - -  
1:00 AM 78.8 °F - 69.8 °F 74% 29.80 in 6.2 mi South 6.9 mph - N/A   Partly Cloudy
1:30 AM 78.8 °F - 69.8 °F 74% 29.77 in 6.2 mi South 6.9 mph - N/A   Mostly Cloudy
2:00 AM 77.0 °F - 69.8 °F 78% 29.77 in 6.2 mi SE 8.1 mph - N/A   Mostly Cloudy
2:30 AM 77.0 °F - 71.6 °F 83% 29.77 in 6.2 mi SE 9.2 mph - N/A   Mostly Cloudy
3:00 AM 77 °F - 71 °F 75% 29.76 in - South 6.9 mph - -  
3:00 AM 77.0 °F - 69.8 °F 78% 29.74 in 6.2 mi South 6.9 mph - N/A   Mostly Cloudy
3:30 AM 77.0 °F - 69.8 °F 78% 29.74 in 6.2 mi SSE 6.9 mph - N/A   Mostly Cloudy
4:00 AM 76 °F - 70 °F 77% 29.77 in - SE 9.2 mph - -  
4:00 AM 75.2 °F - 69.8 °F 83% 29.74 in 6.2 mi SE 9.2 mph - N/A   Scattered Clouds
4:30 AM 75.2 °F - 69.8 °F 83% 29.74 in 6.2 mi SSE 11.5 mph - N/A   Mostly Cloudy
5:00 AM 75.2 °F - 69.8 °F 83% 29.77 in 6.2 mi SE 6.9 mph - N/A   Mostly Cloudy
5:30 AM 75.2 °F - 69.8 °F 83% 29.77 in 6.2 mi SSE 2.3 mph - N/A   Mostly Cloudy
6:00 AM 76 °F - 69 °F 72% 29.79 in 19 mi SSE 10.4 mph - -   Partly Cloudy
6:00 AM 75.2 °F - 68.0 °F 78% 29.77 in 6.2 mi SSE 10.4 mph - N/A   Mostly Cloudy
6:30 AM 77.0 °F - 69.8 °F 78% 29.80 in 6.2 mi ESE 8.1 mph - N/A   Mostly Cloudy
7:00 AM 80 °F - 69 °F 62% 29.81 in - SSE 8.1 mph - -  
7:00 AM 80.6 °F 83.9 °F 69.8 °F 70% 29.80 in 6.2 mi SSE 8.1 mph - N/A   Mostly Cloudy
7:30 AM 82.4 °F 85.4 °F 68.0 °F 62% 29.80 in 6.2 mi SSE 6.9 mph - N/A   Mostly Cloudy
8:00 AM 82.4 °F 85.4 °F 68.0 °F 62% 29.83 in 6.2 mi SSE 8.1 mph - N/A   Mostly Cloudy
8:30 AM 84.2 °F 87.3 °F 68.0 °F 58% 29.83 in 6.2 mi South 8.1 mph - N/A   Mostly Cloudy
9:00 AM 84 °F - 68 °F 50% 29.83 in 19 mi South 8.1 mph - -   Partly Cloudy
9:00 AM 84.2 °F 87.3 °F 68.0 °F 58% 29.83 in 6.2 mi South 8.1 mph - N/A   Mostly Cloudy
9:30 AM 86.0 °F 89.4 °F 68.0 °F 55% 29.83 in 6.2 mi South 9.2 mph - N/A   Mostly Cloudy
10:00 AM 88 °F - 68 °F 41% 29.83 in - SE 11.5 mph - -  
10:00 AM 87.8 °F 91.4 °F 68.0 °F 52% 29.83 in 6.2 mi SE 11.5 mph - N/A   Mostly Cloudy
10:30 AM 87.8 °F 91.4 °F 68.0 °F 52% 29.83 in 6.2 mi SE 11.5 mph - N/A   Mostly Cloudy
11:00 AM 89.6 °F 93.4 °F 68.0 °F 49% 29.83 in 6.2 mi SE 11.5 mph - N/A   Mostly Cloudy
11:30 AM 89.6 °F 92.2 °F 66.2 °F 46% 29.80 in 6.2 mi East 10.4 mph - N/A   Mostly Cloudy
12:00 PM 89 °F - 69 °F 42% 29.81 in 19 mi NE 12.7 mph - -   Partly Cloudy
12:00 PM 89.6 °F 94.7 °F 69.8 °F 52% 29.80 in 6.2 mi NE 12.7 mph - N/A   Mostly Cloudy
12:30 PM 89.6 °F 94.7 °F 69.8 °F 52% 29.80 in 6.2 mi East 12.7 mph - N/A   Mostly Cloudy
1:00 PM 92 °F - 68 °F 36% 29.79 in - NE 16.1 mph - -  
1:00 PM 91.4 °F 95.4 °F 68.0 °F 46% 29.77 in 6.2 mi NE 16.1 mph - N/A   Mostly Cloudy
1:30 PM 91.4 °F 95.4 °F 68.0 °F 46% 29.77 in 6.2 mi ENE 15.0 mph - N/A   Partly Cloudy
2:00 PM 91.4 °F 95.4 °F 68.0 °F 46% 29.74 in 6.2 mi East 17.3 mph - N/A   Partly Cloudy
2:30 PM 89.6 °F 92.2 °F 66.2 °F 46% 29.74 in 6.2 mi ESE 16.1 mph - N/A   Partly Cloudy
3:00 PM 91 °F - 69 °F 39% 29.75 in 19 mi East 16.1 mph - -   Partly Cloudy
3:00 PM 91.4 °F 96.8 °F 69.8 °F 49% 29.74 in 6.2 mi East 16.1 mph - N/A   Partly Cloudy
3:30 PM 89.6 °F 92.2 °F 66.2 °F 46% 29.74 in 6.2 mi ESE 16.1 mph - N/A   Partly Cloudy
4:00 PM 91 °F - 69 °F 38% 29.74 in - SE 18.4 mph - -  
4:00 PM 91.4 °F 95.4 °F 68.0 °F 46% 29.71 in 6.2 mi SE 18.4 mph - N/A   Scattered Clouds
4:30 PM 87.8 °F 91.4 °F 68.0 °F 52% 29.71 in 6.2 mi SE 15.0 mph - N/A   Scattered Clouds
5:00 PM 87.8 °F 92.6 °F 69.8 °F 55% 29.74 in 6.2 mi ESE 13.8 mph - N/A   Scattered Clouds
5:30 PM 86.0 °F 91.8 °F 71.6 °F 62% 29.74 in 6.2 mi ESE 11.5 mph - N/A   Scattered Clouds
6:00 PM 85 °F - 71 °F 55% 29.76 in - ESE 11.5 mph - -  
6:00 PM 84.2 °F 89.6 °F 71.6 °F 66% 29.74 in 6.2 mi ESE 11.5 mph - N/A   Scattered Clouds
6:30 PM 84.2 °F 89.6 °F 71.6 °F 66% 29.74 in 6.2 mi SE 12.7 mph - N/A   Partly Cloudy
7:00 PM 83 °F - 72 °F 62% 29.79 in - SE 13.8 mph - -  
7:00 PM 82.4 °F 87.2 °F 71.6 °F 70% 29.77 in 6.2 mi SE 13.8 mph - N/A   Partly Cloudy
7:30 PM 82.4 °F 87.2 °F 71.6 °F 70% 29.77 in 6.2 mi SE 10.4 mph - N/A   Partly Cloudy
8:00 PM 82.4 °F 88.2 °F 73.4 °F 74% 29.77 in 6.2 mi SE 8.1 mph - N/A   Partly Cloudy
8:30 PM 80.6 °F 85.4 °F 73.4 °F 79% 29.80 in 6.2 mi SE 8.1 mph - N/A   Partly Cloudy
9:00 PM 81 °F - 73 °F 72% 29.80 in - SSE 6.9 mph - -  
9:00 PM 80.6 °F 85.4 °F 73.4 °F 79% 29.80 in 6.2 mi SSE 6.9 mph - N/A   Scattered Clouds
9:30 PM 80.6 °F 85.4 °F 73.4 °F 79% 29.80 in 6.2 mi South 4.6 mph - N/A   Scattered Clouds
10:00 PM 81 °F - 73 °F 70% 29.82 in - South 6.9 mph - -  
10:00 PM 80.6 °F 85.4 °F 73.4 °F 79% 29.80 in 6.2 mi South 6.9 mph - N/A   Mostly Cloudy
10:30 PM 80.6 °F 85.4 °F 73.4 °F 79% 29.83 in 6.2 mi South 4.6 mph - N/A   Mostly Cloudy
11:00 PM 80.6 °F 85.4 °F 73.4 °F 79% 29.83 in 6.2 mi South 6.9 mph - N/A   Mostly Cloudy
11:30 PM 80.6 °F 85.4 °F 73.4 °F 79% 29.80 in 6.2 mi South 6.9 mph - N/A   Mostly Cloudy